Location: Munkebjergskolens Observatorium
(55.3864°N, 10.3987°E)
Time: 04:49:00
(UTC+02:00)

CAS-6 - Pass Details

Date: 06 April 2023
Orbit: 610 x 632 km, 97.9° (Epoch: 31 May)

Event Time Altitude Azimuth Distance (km) Brightness Sun altitude
Exits shadow 00:49:00 17° 276° (W) 1,608 ? -28.0°
Drops below altitude 10° 00:51:40 10° 313° (NW) 2,015 ? -28.1°
Sets 00:54:36 0° 334° (NNW) 2,933 ? -28.1°
